sat.trackr.live / text

‹ back to catalog

STARLINK-1663

NORAD 46535 · 2020-070D

PAYLOAD ACTIVE UNKNOWN

§ Identity

Operator
Country
US
Launch date
2020-10-06
Launch site
AFETR
Launch vehicle
Mass (kg)
RCS (m²)

Purposes: comms

External: N2YO · Heavens-Above · Gunter

§ Orbital elements

Epoch: 2026-05-25T04:34:52.883040Z

Period
91.00 min
Inclination
53.0335°
Eccentricity
0.0007199
Mean motion
15.82465479 rev/d
Perigee alt
318.6 km
Apogee alt
328.3 km
Semi-major
6,701.6 km
B*
7.8711e-4
RAAN
115.1070°
Arg perigee
60.6025°
Mean anomaly
299.5715°
Rev number
31,212

§ Raw data

STARLINK-16631 46535U 20070D   26145.19088985  .00170160  00000+0  78711-3 0  99992 46535  53.0335 115.1070 0007199  60.6025 299.5715 15.82465479312122

JSON: /api/v1/satellites/46535 · /tle

For live sub-satellite position, see the globe view (requires WebGL).

§ Visibility from observer

Set your observer location to see the next 7 days of passes ≥ 10°. The values pass through the URL so the page stays shareable.

No JS? Fill the form by hand. The geolocation button needs JavaScript.